QPF
0.01 0.01 0.01 0.01 0.01 0.01 0.01 0.01 0.01 0.00 0.00 0.00 0.00 0.00 0.00 0.00 0.00 0.00 0.00 0.00 0.01 0.01 0.01 0.01 0.01 0.02 0.02 0.02 0.02 0.04 0.07 0.08 0.08 0.09 0.11 0.10 0.08 0.09 0.11 0.11 0.13 0.13 0.11 0.11
0.02 0.01 0.01 0.02 0.01 0.00 0.00 0.00 0.01 0.00 0.00 0.00 0.00 0.00 0.00 0.00 0.00 0.00 0.00 0.01 0.01 0.01 0.01 0.02 0.01 0.01 0.03 0.02 0.02 0.04 0.08 0.10 0.10 0.09 0.09 0.08 0.06 0.06 0.08 0.10 0.12 0.14 0.13 0.13
0.02 0.00 0.01 0.01 0.00 0.00 0.00 0.00 0.00 0.00 0.00 0.00 0.00 0.00 0.00 0.00 0.00 0.00 0.01 0.01 0.01 0.01 0.02 0.02 0.02 0.02 0.03 0.02 0.02 0.04 0.08 0.10 0.10 0.08 0.08 0.09 0.08 0.06 0.07 0.10 0.11 0.11 0.12 0.15
0.04 0.01 0.01 0.00 0.00 0.00 0.00 0.00 0.00 0.00 0.00 0.00 0.00 0.00 0.00 0.00 0.00 0.00 0.01 0.01 0.02 0.02 0.03 0.03 0.03 0.03 0.03 0.02 0.02 0.04 0.06 0.08 0.10 0.08 0.08 0.09 0.09 0.07 0.07 0.08 0.09 0.09 0.11 0.13
0.05 0.02 0.01 0.00 0.00 0.00 0.00 0.00 0.00 0.00 0.00 0.00 0.00 0.00 0.00 0.00 0.00 0.00 0.01 0.01 0.02 0.03 0.04 0.04 0.04 0.04 0.04 0.03 0.03 0.05 0.07 0.07 0.09 0.09 0.08 0.08 0.09 0.09 0.08 0.07 0.08 0.08 0.09 0.11
0.06 0.03 0.01 0.00 0.00 0.00 0.00 0.00 0.00 0.00 0.00 0.00 0.00 0.00 0.00 0.00 0.00 0.00 0.00 0.01 0.02 0.03 0.04 0.04 0.05 0.05 0.05 0.04 0.05 0.07 0.10 0.09 0.10 0.11 0.10 0.10 0.10 0.10 0.09 0.08 0.09 0.09 0.09 0.10
0.04 0.03 0.01 0.00 0.00 0.00 0.00 0.01 0.00 0.00 0.00 0.00 0.00 0.00 0.00 0.00 0.00 0.00 0.00 0.01 0.01 0.02 0.02 0.03 0.03 0.04 0.04 0.04 0.05 0.08 0.11 0.10 0.11 0.14 0.13 0.11 0.12 0.11 0.11 0.11 0.11 0.11 0.11 0.12
0.02 0.04 0.01 0.00 0.00 0.00 0.00 0.00 0.00 0.00 0.00 0.00 0.00 0.00 0.00 0.00 0.00 0.00 0.00 0.00 0.01 0.01 0.01 0.01 0.02 0.03 0.03 0.04 0.07 0.09 0.10 0.09 0.11 0.13 0.14 0.12 0.14 0.13 0.12 0.12 0.12 0.12 0.13 0.14
0.01 0.01 0.00 0.00 0.00 0.00 0.00 0.00 0.00 0.00 0.00 0.00 0.00 0.00 0.00 0.00 0.00 0.00 0.00 0.00 0.00 0.01 0.01 0.01 0.01 0.02 0.03 0.04 0.06 0.10 0.10 0.09 0.10 0.11 0.13 0.13 0.15 0.13 0.12 0.11 0.09 0.10 0.12 0.13
0.01 0.00 0.00 0.00 0.00 0.00 0.00 0.00 0.00 0.00 0.00 0.00 0.00 0.00 0.00 0.00 0.00 0.00 0.00 0.00 0.01 0.01 0.01 0.01 0.02 0.03 0.04 0.05 0.05 0.08 0.09 0.09 0.09 0.10 0.11 0.11 0.12 0.11 0.10 0.09 0.08 0.09 0.12 0.12
0.00 0.00 0.00 0.00 0.00 0.00 0.00 0.00 0.00 0.00 0.00 0.00 0.00 0.00 0.00 0.00 0.00 0.00 0.00 0.01 0.01 0.01 0.02 0.01 0.02 0.03 0.03 0.04 0.05 0.07 0.08 0.08 0.08 0.09 0.12 0.11 0.12 0.11 0.10 0.08 0.08 0.09 0.11 0.12
0.00 0.00 0.00 0.00 0.00 0.00 0.00 0.00 0.00 0.00 0.00 0.00 0.00 0.00 0.00 0.00 0.00 0.00 0.01 0.01 0.01 0.01 0.01 0.01 0.02 0.02 0.03 0.04 0.05 0.06 0.07 0.07 0.08 0.09 0.10 0.10 0.12 0.14 0.12 0.10 0.08 0.08 0.10 0.10
0.00 0.00 0.00 0.00 0.00 0.00 0.00 0.00 0.00 0.00 0.01 0.01 0.00 0.00 0.00 0.00 0.00 0.01 0.01 0.01 0.02 0.02 0.01 0.01 0.02 0.02 0.03 0.04 0.04 0.04 0.06 0.07 0.07 0.08 0.09 0.09 0.10 0.11 0.12 0.12 0.10 0.10 0.09 0.09
0.00 0.00 0.00 0.01 0.01 0.01 0.01 0.01 0.01 0.01 0.01 0.01 0.01 0.01 0.01 0.01 0.01 0.01 0.01 0.02 0.02 0.01 0.01 0.01 0.01 0.02 0.03 0.03 0.03 0.04 0.05 0.07 0.07 0.07 0.09 0.09 0.08 0.08 0.09 0.11 0.11 0.11 0.09 0.09
0.00 0.00 0.01 0.01 0.01 0.00 0.00 0.01 0.01 0.00 0.00 0.00 0.00 0.00 0.01 0.01 0.01 0.01 0.01 0.01 0.01 0.01 0.01 0.01 0.01 0.02 0.02 0.03 0.03 0.04 0.06 0.08 0.08 0.07 0.08 0.08 0.07 0.07 0.06 0.07 0.08 0.08 0.09 0.10
0.01 0.00 0.00 0.00 0.00 0.00 0.00 0.00 0.00 0.00 0.00 0.00 0.00 0.00 0.00 0.01 0.01 0.01 0.01 0.01 0.00 0.00 0.00 0.01 0.01 0.01 0.02 0.02 0.03 0.04 0.06 0.09 0.09 0.09 0.09 0.08 0.07 0.06 0.05 0.06 0.07 0.07 0.09 0.11
0.00 0.00 0.00 0.00 0.00 0.00 0.00 0.00 0.00 0.00 0.00 0.00 0.00 0.00 0.00 0.01 0.01 0.01 0.01 0.01 0.00 0.00 0.00 0.01 0.01 0.01 0.02 0.02 0.03 0.04 0.06 0.09 0.09 0.08 0.08 0.08 0.07 0.06 0.05 0.05 0.07 0.07 0.08 0.11
0.00 0.00 0.00 0.00 0.00 0.00 0.00 0.00 0.00 0.00 0.00 0.00 0.00 0.00 0.00 0.01 0.01 0.01 0.01 0.01 0.01 0.00 0.01 0.01 0.02 0.02 0.02 0.02 0.03 0.05 0.07 0.09 0.09 0.09 0.08 0.08 0.07 0.05 0.04 0.05 0.07 0.07 0.09 0.11
0.00 0.00 0.00 0.00 0.00 0.00 0.00 0.00 0.00 0.00 0.00 0.00 0.00 0.00 0.01 0.01 0.01 0.01 0.00 0.00 0.01 0.01 0.01 0.02 0.02 0.02 0.02 0.02 0.03 0.04 0.06 0.08 0.09 0.09 0.08 0.08 0.07 0.05 0.04 0.04 0.06 0.08 0.09 0.12
0.00 0.00 0.00 0.00 0.00 0.00 0.00 0.00 0.00 0.00 0.00 0.00 0.00 0.01 0.01 0.01 0.00 0.00 0.00 0.00 0.01 0.02 0.02 0.02 0.02 0.02 0.02 0.03 0.03 0.04 0.06 0.08 0.09 0.09 0.08 0.07 0.06 0.04 0.04 0.04 0.05 0.07 0.09 0.10
0.00 0.00 0.00 0.00 0.00 0.01 0.00 0.00 0.00 0.00 0.00 0.00 0.00 0.01 0.01 0.01 0.00 0.00 0.01 0.01 0.01 0.02 0.02 0.02 0.02 0.03 0.03 0.04 0.04 0.04 0.06 0.07 0.08 0.08 0.07 0.06 0.05 0.04 0.04 0.04 0.05 0.07 0.09 0.09
0.00 0.00 0.00 0.00 0.01 0.01 0.01 0.00 0.00 0.00 0.00 0.00 0.00 0.01 0.01 0.01 0.00 0.00 0.01 0.01 0.02 0.02 0.02 0.02 0.03 0.03 0.04 0.04 0.04 0.04 0.05 0.07 0.07 0.07 0.07 0.06 0.05 0.05 0.05 0.05 0.05 0.07 0.08 0.08
0.01 0.01 0.01 0.01 0.01 0.01 0.01 0.00 0.01 0.01 0.01 0.01 0.01 0.01 0.01 0.01 0.00 0.01 0.01 0.01 0.01 0.01 0.02 0.03 0.04 0.04 0.04 0.04 0.04 0.04 0.05 0.06 0.06 0.06 0.07 0.06 0.05 0.05 0.05 0.06 0.06 0.07 0.08 0.08
0.01 0.01 0.01 0.01 0.01 0.01 0.01 0.01 0.01 0.01 0.01 0.01 0.01 0.01 0.01 0.01 0.01 0.01 0.01 0.01 0.01 0.01 0.02 0.03 0.04 0.04 0.04 0.04 0.04 0.04 0.05 0.06 0.06 0.06 0.06 0.06 0.05 0.06 0.06 0.06 0.07 0.07 0.08 0.08
0.01 0.01 0.01 0.01 0.01 0.01 0.01 0.01 0.01 0.01 0.01 0.01 0.01 0.01 0.01 0.01 0.02 0.02 0.02 0.02 0.02 0.02 0.03 0.04 0.04 0.05 0.05 0.04 0.04 0.05 0.06 0.07 0.07 0.07 0.06 0.06 0.06 0.08 0.09 0.08 0.07 0.06 0.07 0.07
0.01 0.01 0.01 0.01 0.01 0.01 0.01 0.01 0.01 0.01 0.01 0.01 0.02 0.02 0.02 0.02 0.02 0.02 0.02 0.03 0.03 0.03 0.04 0.04 0.04 0.04 0.04 0.04 0.04 0.05 0.05 0.06 0.06 0.07 0.06 0.06 0.07 0.08 0.09 0.09 0.08 0.07 0.07 0.07
0.01 0.01 0.01 0.00 0.00 0.00 0.01 0.01 0.01 0.01 0.02 0.02 0.02 0.02 0.02 0.03 0.03 0.03 0.03 0.03 0.03 0.03 0.03 0.03 0.03 0.03 0.03 0.04 0.04 0.04 0.05 0.06 0.07 0.07 0.07 0.07 0.08 0.09 0.10 0.09 0.08 0.07 0.07 0.07
MSLP
1024.14 1024.40 1024.58 1024.57 1024.31 1023.73 1022.82 1021.61 1020.16 1018.57 1016.94 1015.39 1014.01 1012.85 1011.93 1011.21 1010.65 1010.19 1009.75 1009.28 1008.75 1008.14 1007.45 1006.68 1005.82 1004.88 1003.82 1002.60 1001.18 999.54 997.67 995.61 993.40 991.16 988.99 987.05 985.44 984.23 983.47 983.15 983.21 983.56 984.11 984.75
1023.79 1023.92 1023.94 1023.79 1023.40 1022.75 1021.83 1020.67 1019.33 1017.89 1016.44 1015.07 1013.83 1012.77 1011.89 1011.17 1010.56 1010.01 1009.48 1008.92 1008.32 1007.66 1006.94 1006.17 1005.32 1004.38 1003.30 1002.03 1000.54 998.78 996.77 994.55 992.18 989.78 987.49 985.45 983.77 982.54 981.80 981.53 981.68 982.15 982.83 983.61
1023.12 1023.10 1022.95 1022.63 1022.12 1021.39 1020.46 1019.37 1018.16 1016.91 1015.69 1014.54 1013.51 1012.62 1011.85 1011.18 1010.57 1009.98 1009.38 1008.74 1008.07 1007.35 1006.60 1005.80 1004.94 1003.99 1002.89 1001.59 1000.04 998.21 996.11 993.78 991.31 988.82 986.45 984.35 982.64 981.41 980.70 980.48 980.69 981.25 982.03 982.92
1022.12 1021.96 1021.65 1021.18 1020.55 1019.76 1018.84 1017.83 1016.78 1015.74 1014.77 1013.88 1013.09 1012.41 1011.80 1011.22 1010.65 1010.05 1009.41 1008.71 1007.97 1007.19 1006.39 1005.56 1004.68 1003.70 1002.59 1001.26 999.68 997.81 995.66 993.29 990.77 988.25 985.85 983.74 982.04 980.82 980.14 979.96 980.22 980.83 981.68 982.65
1020.84 1020.57 1020.14 1019.56 1018.84 1018.02 1017.13 1016.23 1015.35 1014.53 1013.81 1013.18 1012.65 1012.17 1011.73 1011.27 1010.75 1010.17 1009.50 1008.76 1007.96 1007.12 1006.27 1005.40 1004.49 1003.50 1002.37 1001.03 999.43 997.56 995.41 993.04 990.53 988.02 985.65 983.56 981.89 980.70 980.04 979.89 980.19 980.83 981.73 982.74
1019.35 1019.01 1018.51 1017.87 1017.13 1016.32 1015.50 1014.72 1014.01 1013.40 1012.91 1012.52 1012.21 1011.94 1011.64 1011.28 1010.83 1010.26 1009.59 1008.81 1007.97 1007.10 1006.21 1005.30 1004.37 1003.36 1002.22 1000.89 999.30 997.45 995.33 992.99 990.53 988.07 985.75 983.72 982.09 980.95 980.32 980.19 980.51 981.18 982.10 983.15
1017.71 1017.35 1016.85 1016.22 1015.51 1014.77 1014.05 1013.40 1012.86 1012.45 1012.16 1011.96 1011.83 1011.70 1011.53 1011.25 1010.85 1010.30 1009.63 1008.84 1007.98 1007.09 1006.18 1005.26 1004.32 1003.31 1002.18 1000.85 999.29 997.47 995.40 993.13 990.74 988.36 986.12 984.16 982.59 981.50 980.91 980.81 981.15 981.83 982.77 983.86
1015.99 1015.67 1015.22 1014.66 1014.05 1013.42 1012.84 1012.34 1011.96 1011.70 1011.57 1011.52 1011.51 1011.48 1011.38 1011.16 1010.79 1010.27 1009.61 1008.83 1007.98 1007.10 1006.20 1005.30 1004.37 1003.37 1002.25 1000.95 999.43 997.65 995.64 993.43 991.13 988.84 986.69 984.82 983.34 982.31 981.77 981.71 982.07 982.78 983.74 984.85
1014.27 1014.03 1013.68 1013.25 1012.77 1012.30 1011.87 1011.53 1011.29 1011.17 1011.15 1011.19 1011.25 1011.28 1011.21 1011.02 1010.68 1010.18 1009.55 1008.81 1008.00 1007.16 1006.31 1005.45 1004.55 1003.59 1002.50 1001.22 999.73 998.00 996.04 993.91 991.70 989.50 987.46 985.69 984.30 983.35 982.88 982.87 983.27 984.01 985.00 986.15
1012.63 1012.50 1012.28 1012.00 1011.69 1011.39 1011.13 1010.94 1010.83 1010.82 1010.87 1010.97 1011.06 1011.10 1011.05 1010.87 1010.54 1010.08 1009.50 1008.82 1008.09 1007.33 1006.55 1005.75 1004.91 1003.98 1002.92 1001.68 1000.21 998.51 996.61 994.55 992.42 990.32 988.39 986.74 985.45 984.61 984.22 984.28 984.74 985.53 986.56 987.75
1011.15 1011.13 1011.06 1010.94 1010.81 1010.68 1010.59 1010.54 1010.55 1010.61 1010.72 1010.84 1010.93 1010.97 1010.91 1010.74 1010.44 1010.02 1009.51 1008.92 1008.28 1007.62 1006.93 1006.21 1005.43 1004.55 1003.52 1002.29 1000.84 999.17 997.31 995.31 993.26 991.27 989.45 987.92 986.77 986.04 985.76 985.92 986.45 987.30 988.38 989.60
1009.93 1010.00 1010.06 1010.10 1010.13 1010.16 1010.21 1010.29 1010.39 1010.52 1010.66 1010.79 1010.88 1010.90 1010.84 1010.68 1010.42 1010.06 1009.63 1009.14 1008.61 1008.06 1007.47 1006.82 1006.10 1005.25 1004.24 1003.01 1001.57 999.91 998.08 996.13 994.16 992.28 990.59 989.20 988.19 987.60 987.45 987.72 988.35 989.27 990.40 991.65
1009.02 1009.17 1009.33 1009.49 1009.65 1009.82 1009.99 1010.16 1010.34 1010.52 1010.68 1010.81 1010.90 1010.92 1010.86 1010.72 1010.51 1010.22 1009.88 1009.49 1009.07 1008.61 1008.10 1007.53 1006.84 1006.01 1004.99 1003.76 1002.31 1000.66 998.85 996.95 995.07 993.29 991.74 990.50 989.65 989.22 989.22 989.62 990.35 991.35 992.52 993.79
1008.47 1008.66 1008.89 1009.13 1009.39 1009.65 1009.90 1010.15 1010.38 1010.59 1010.78 1010.92 1011.01 1011.03 1010.99 1010.88 1010.72 1010.50 1010.23 1009.94 1009.60 1009.22 1008.78 1008.24 1007.57 1006.74 1005.71 1004.45 1002.99 1001.33 999.55 997.72 995.92 994.27 992.86 991.79 991.11 990.85 991.00 991.53 992.37 993.44 994.66 995.94
1008.28 1008.49 1008.75 1009.04 1009.34 1009.65 1009.95 1010.24 1010.51 1010.75 1010.95 1011.10 1011.20 1011.24 1011.22 1011.15 1011.03 1010.87 1010.68 1010.44 1010.17 1009.84 1009.43 1008.90 1008.23 1007.37 1006.31 1005.04 1003.56 1001.91 1000.17 998.40 996.71 995.19 993.95 993.05 992.54 992.45 992.75 993.41 994.35 995.49 996.74 998.02
1008.43 1008.64 1008.90 1009.19 1009.50 1009.82 1010.14 1010.45 1010.73 1010.98 1011.19 1011.36 1011.47 1011.53 1011.54 1011.50 1011.42 1011.31 1011.16 1010.97 1010.73 1010.42 1010.01 1009.47 1008.77 1007.89 1006.80 1005.50 1004.02 1002.41 1000.72 999.04 997.47 996.10 995.01 994.29 993.95 994.02 994.46 995.23 996.25 997.44 998.71 999.98
1008.87 1009.05 1009.28 1009.55 1009.85 1010.15 1010.46 1010.75 1011.03 1011.28 1011.50 1011.67 1011.80 1011.88 1011.92 1011.91 1011.86 1011.78 1011.65 1011.48 1011.25 1010.93 1010.50 1009.94 1009.21 1008.30 1007.19 1005.89 1004.44 1002.87 1001.27 999.70 998.27 997.05 996.13 995.57 995.39 995.59 996.14 997.00 998.08 999.30 1000.58 1001.83
1009.50 1009.66 1009.86 1010.08 1010.33 1010.60 1010.87 1011.14 1011.40 1011.65 1011.86 1012.04 1012.18 1012.28 1012.34 1012.35 1012.32 1012.25 1012.14 1011.96 1011.71 1011.38 1010.92 1010.33 1009.58 1008.65 1007.55 1006.28 1004.87 1003.39 1001.90 1000.46 999.18 998.12 997.36 996.95 996.90 997.21 997.85 998.75 999.86 1001.08 1002.34 1003.56
1010.24 1010.38 1010.54 1010.73 1010.93 1011.14 1011.37 1011.60 1011.83 1012.06 1012.26 1012.45 1012.60 1012.71 1012.78 1012.81 1012.79 1012.72 1012.60 1012.41 1012.14 1011.78 1011.30 1010.69 1009.93 1009.01 1007.94 1006.73 1005.41 1004.04 1002.68 1001.39 1000.27 999.36 998.75 998.47 998.52 998.90 999.58 1000.51 1001.60 1002.79 1004.01 1005.18
1011.01 1011.14 1011.27 1011.41 1011.56 1011.73 1011.91 1012.10 1012.30 1012.50 1012.69 1012.87 1013.02 1013.14 1013.22 1013.26 1013.24 1013.17 1013.04 1012.83 1012.55 1012.16 1011.67 1011.06 1010.31 1009.43 1008.41 1007.28 1006.08 1004.84 1003.63 1002.50 1001.54 1000.79 1000.30 1000.12 1000.25 1000.67 1001.36 1002.26 1003.31 1004.45 1005.60 1006.71
1011.74 1011.87 1011.98 1012.09 1012.20 1012.32 1012.46 1012.61 1012.77 1012.95 1013.13 1013.30 1013.45 1013.57 1013.65 1013.69 1013.67 1013.60 1013.45 1013.23 1012.93 1012.54 1012.05 1011.45 1010.73 1009.90 1008.96 1007.93 1006.85 1005.76 1004.71 1003.75 1002.93 1002.32 1001.95 1001.85 1002.02 1002.46 1003.13 1003.98 1004.97 1006.02 1007.09 1008.13
1012.38 1012.52 1012.63 1012.72 1012.80 1012.88 1012.98 1013.09 1013.23 1013.38 1013.54 1013.70 1013.84 1013.96 1014.05 1014.08 1014.07 1013.98 1013.83 1013.60 1013.29 1012.89 1012.41 1011.82 1011.15 1010.38 1009.52 1008.61 1007.66 1006.72 1005.82 1005.01 1004.35 1003.86 1003.59 1003.55 1003.76 1004.19 1004.82 1005.61 1006.52 1007.49 1008.48 1009.44
1012.90 1013.06 1013.17 1013.25 1013.31 1013.37 1013.44 1013.52 1013.63 1013.76 1013.90 1014.05 1014.19 1014.30 1014.39 1014.42 1014.39 1014.30 1014.14 1013.90 1013.58 1013.18 1012.70 1012.14 1011.50 1010.79 1010.03 1009.22 1008.40 1007.59 1006.84 1006.18 1005.64 1005.27 1005.09 1005.11 1005.34 1005.77 1006.36 1007.09 1007.93 1008.82 1009.73 1010.62
1013.29 1013.47 1013.59 1013.67 1013.72 1013.76 1013.81 1013.87 1013.95 1014.06 1014.18 1014.32 1014.45 1014.56 1014.63 1014.66 1014.63 1014.53 1014.35 1014.10 1013.77 1013.37 1012.89 1012.34 1011.73 1011.08 1010.38 1009.67 1008.95 1008.27 1007.65 1007.12 1006.71 1006.45 1006.36 1006.44 1006.70 1007.12 1007.70 1008.39 1009.16 1009.99 1010.84 1011.68
1013.56 1013.75 1013.88 1013.96 1014.00 1014.02 1014.05 1014.09 1014.16 1014.25 1014.36 1014.48 1014.60 1014.70 1014.77 1014.78 1014.74 1014.62 1014.43 1014.16 1013.82 1013.40 1012.91 1012.37 1011.78 1011.16 1010.52 1009.88 1009.27 1008.69 1008.19 1007.78 1007.49 1007.34 1007.33 1007.48 1007.79 1008.24 1008.81 1009.48 1010.23 1011.02 1011.83 1012.63
1013.71 1013.90 1014.03 1014.10 1014.14 1014.15 1014.16 1014.19 1014.24 1014.31 1014.41 1014.52 1014.62 1014.71 1014.77 1014.78 1014.72 1014.58 1014.37 1014.08 1013.71 1013.27 1012.77 1012.22 1011.64 1011.04 1010.44 1009.86 1009.32 1008.84 1008.45 1008.15 1007.98 1007.93 1008.03 1008.26 1008.63 1009.13 1009.73 1010.41 1011.15 1011.93 1012.72 1013.51
1013.76 1013.95 1014.06 1014.12 1014.14 1014.14 1014.14 1014.15 1014.19 1014.25 1014.33 1014.43 1014.53 1014.61 1014.65 1014.64 1014.57 1014.41 1014.18 1013.86 1013.46 1013.00 1012.48 1011.91 1011.33 1010.74 1010.17 1009.65 1009.18 1008.79 1008.49 1008.31 1008.25 1008.31 1008.52 1008.85 1009.30 1009.86 1010.51 1011.22 1011.99 1012.78 1013.58 1014.37
Thickness
5475 5476 5466 5464 5460 5448 5444 5458 5464 5487 5490 5500 5495 5487 5479 5473 5466 5461 5457 5454 5450 5447 5444 5442 5441 5439 5438 5437 5436 5435 5434 5434 5435 5437 5438 5440 5444 5447 5452 5458 5464 5470 5477 5484
5457 5463 5457 5456 5465 5460 5451 5451 5456 5463 5473 5487 5481 5472 5467 5463 5457 5452 5448 5445 5442 5439 5436 5434 5432 5431 5430 5429 5429 5428 5428 5428 5429 5430 5433 5436 5440 5443 5447 5453 5458 5464 5472 5479
5457 5453 5443 5458 5477 5468 5461 5460 5455 5458 5474 5476 5468 5462 5457 5451 5446 5441 5438 5435 5433 5431 5428 5426 5423 5421 5422 5421 5421 5420 5421 5422 5423 5425 5428 5432 5437 5439 5442 5447 5453 5460 5467 5474
5437 5430 5439 5488 5475 5469 5461 5460 5456 5456 5461 5459 5455 5452 5446 5441 5437 5434 5430 5427 5425 5422 5420 5418 5415 5413 5413 5413 5413 5413 5414 5415 5416 5418 5422 5427 5431 5434 5437 5442 5448 5455 5463 5470
5423 5432 5456 5475 5464 5452 5444 5451 5455 5449 5449 5448 5444 5438 5444 5439 5431 5426 5422 5419 5416 5414 5411 5410 5408 5407 5406 5407 5406 5406 5407 5408 5409 5412 5416 5421 5425 5429 5433 5438 5443 5450 5458 5466
5411 5418 5442 5475 5453 5441 5435 5442 5457 5446 5441 5438 5429 5431 5442 5433 5423 5419 5414 5410 5407 5405 5403 5402 5401 5399 5399 5400 5400 5400 5400 5401 5403 5406 5410 5415 5420 5425 5429 5434 5440 5447 5455 5463
5408 5414 5440 5457 5434 5424 5429 5451 5447 5438 5433 5427 5421 5423 5424 5419 5413 5409 5406 5402 5399 5397 5396 5395 5393 5391 5392 5393 5394 5393 5393 5395 5398 5402 5406 5410 5415 5421 5425 5431 5437 5444 5453 5461
5404 5405 5430 5438 5419 5424 5440 5438 5431 5426 5422 5416 5414 5412 5409 5405 5402 5399 5396 5394 5391 5388 5388 5388 5385 5384 5385 5386 5386 5386 5387 5390 5394 5397 5402 5406 5411 5417 5422 5427 5434 5442 5451 5460
5414 5430 5438 5425 5424 5424 5420 5420 5419 5415 5411 5405 5402 5401 5398 5395 5393 5390 5387 5385 5382 5380 5381 5381 5378 5376 5377 5378 5378 5379 5382 5386 5389 5392 5397 5402 5408 5415 5420 5425 5431 5439 5448 5457
5400 5418 5419 5414 5413 5411 5407 5405 5405 5401 5398 5394 5392 5391 5389 5387 5384 5381 5379 5376 5374 5372 5373 5374 5371 5369 5368 5369 5370 5372 5376 5380 5384 5387 5393 5398 5403 5408 5415 5421 5427 5434 5442 5451
5397 5410 5406 5406 5404 5404 5402 5397 5393 5390 5387 5384 5382 5381 5379 5377 5375 5373 5370 5368 5366 5365 5365 5365 5363 5362 5362 5362 5363 5366 5370 5374 5378 5382 5387 5392 5397 5402 5409 5416 5421 5428 5436 5444
5403 5409 5402 5407 5402 5397 5392 5389 5386 5382 5379 5376 5372 5371 5369 5367 5366 5363 5361 5359 5357 5357 5357 5357 5355 5355 5355 5355 5356 5359 5364 5369 5373 5377 5382 5387 5392 5399 5404 5410 5416 5423 5431 5438
5397 5396 5392 5392 5389 5385 5383 5380 5375 5371 5368 5366 5364 5361 5359 5358 5357 5354 5353 5351 5350 5350 5349 5349 5348 5348 5348 5348 5350 5353 5358 5362 5366 5371 5376 5381 5387 5394 5402 5409 5414 5420 5427 5434
5380 5378 5378 5380 5378 5374 5371 5367 5363 5359 5357 5355 5354 5352 5350 5349 5348 5346 5345 5343 5342 5342 5342 5341 5342 5342 5342 5343 5345 5349 5353 5356 5360 5365 5370 5376 5382 5388 5395 5402 5409 5416 5421 5429
5369 5368 5369 5369 5366 5362 5358 5354 5351 5350 5348 5346 5345 5343 5341 5340 5339 5338 5337 5335 5335 5335 5336 5335 5336 5336 5336 5337 5339 5343 5348 5352 5356 5361 5365 5371 5378 5384 5390 5396 5403 5410 5416 5424
5359 5358 5357 5355 5354 5351 5347 5344 5343 5341 5339 5337 5336 5334 5332 5331 5330 5330 5329 5328 5328 5329 5329 5329 5330 5330 5331 5332 5335 5339 5343 5346 5350 5356 5362 5368 5374 5380 5386 5392 5398 5405 5411 5417
5346 5348 5347 5346 5344 5341 5338 5336 5333 5332 5329 5328 5327 5325 5323 5322 5322 5322 5321 5321 5321 5322 5322 5322 5323 5325 5326 5328 5330 5334 5338 5342 5346 5352 5358 5364 5370 5376 5382 5388 5394 5400 5406 5412
5337 5338 5337 5335 5333 5331 5328 5325 5323 5321 5319 5318 5316 5315 5315 5315 5315 5314 5313 5313 5314 5315 5316 5316 5317 5319 5321 5324 5326 5330 5334 5338 5343 5348 5354 5360 5367 5373 5378 5384 5390 5396 5402 5407
5323 5323 5323 5322 5321 5319 5317 5315 5313 5311 5310 5308 5308 5307 5306 5306 5305 5305 5305 5306 5307 5309 5310 5310 5312 5314 5316 5319 5322 5325 5329 5334 5339 5345 5350 5356 5362 5368 5374 5379 5385 5391 5396 5403
5311 5311 5310 5309 5308 5306 5305 5303 5302 5302 5301 5300 5299 5298 5298 5297 5296 5296 5297 5299 5300 5300 5301 5303 5306 5309 5312 5316 5318 5322 5326 5331 5336 5342 5347 5352 5358 5364 5369 5375 5380 5385 5391 5397
5301 5300 5299 5298 5296 5295 5294 5293 5293 5292 5292 5291 5290 5290 5289 5288 5287 5287 5289 5294 5294 5293 5295 5298 5301 5304 5308 5311 5315 5319 5323 5328 5334 5339 5344 5349 5354 5359 5364 5370 5375 5381 5387 5393
5290 5290 5289 5287 5286 5284 5283 5283 5283 5283 5282 5282 5281 5280 5280 5280 5281 5281 5282 5283 5286 5287 5290 5293 5296 5299 5304 5308 5312 5316 5320 5325 5330 5334 5339 5344 5349 5355 5360 5365 5371 5376 5382 5388
5280 5280 5279 5278 5276 5274 5273 5273 5273 5273 5273 5273 5272 5272 5273 5273 5274 5275 5278 5278 5279 5281 5284 5287 5291 5295 5299 5304 5308 5312 5316 5321 5325 5330 5334 5339 5344 5350 5355 5361 5366 5372 5378 5383
5271 5270 5268 5267 5266 5266 5266 5266 5264 5264 5263 5263 5264 5263 5264 5266 5267 5268 5269 5270 5272 5276 5279 5282 5286 5290 5294 5298 5302 5306 5311 5315 5320 5325 5330 5335 5340 5345 5351 5357 5363 5369 5374 5379
5261 5260 5259 5259 5260 5261 5260 5258 5257 5257 5258 5258 5258 5258 5258 5258 5259 5261 5262 5264 5266 5270 5273 5276 5280 5284 5288 5291 5296 5300 5305 5310 5316 5321 5326 5331 5337 5342 5348 5354 5360 5365 5371 5376
5253 5254 5254 5252 5252 5252 5252 5252 5253 5253 5253 5253 5253 5253 5253 5253 5253 5255 5256 5259 5261 5265 5268 5271 5274 5278 5282 5286 5291 5295 5300 5306 5312 5317 5322 5327 5333 5339 5345 5350 5356 5362 5367 5372
5245 5246 5245 5246 5246 5245 5245 5245 5246 5246 5246 5246 5247 5247 5247 5248 5249 5251 5252 5254 5257 5260 5263 5266 5269 5272 5276 5281 5286 5291 5296 5301 5307 5312 5318 5323 5329 5335 5341 5347 5352 5358 5363 5368